Flag for Hungary Weather past 2 weeks in Pécs, Hungary

Now
74 °F

Clear.


Feels Like: 77 °F
Forecast: 71 / 93 °F
Wind: 2 mph from Northwest

Location: Pecs / Pogany

Current Time: Jul 6, 2015 at 4:05:19 AM

Latest Report: Jul 6, 2015 at 3:00 AM


Visibility: 47 mi

Pressure: 30.04 "Hg

Humidity: 55%

Dew point: 56 °F

Location of PécsLocation

Historic Weather in Pécs — Graph

°F

Pécs temperature yesterday

Maximum temperature yesterday: 88 °F (at 4:00 PM)
Minimum temperature yesterday: 66 °F (at 4:00 AM)
Average temperature yesterday: 80 °F

Past Weeks' High & Low Weather Summary

 TemperatureHumidityPressure
High88 °F (Jul 5, 4:00 PM)92% (Jun 24, 6:00 AM)30.31 "Hg (Jun 24, 6:00 AM)
Low51 °F (Jun 22, 6:00 AM)31% (Jul 3, 6:00 PM)29.84 "Hg (Jun 23, 11:00 AM)
Average68 °F56%30.11 "Hg
* Reported Jun 21 2:00 AM — Jul 6 2:00 AM, Pécs, Weather by CustomWeather, © 2015

Note: Actual official high and low records may vary slightly from our data, if they occured in-between our weather recording intervals... More about our weather records

Advertising

Pécs weather history for previous 24 hours

 ConditionsComfort  
Time TempWeatherWind HumidityBarometerVisibility
2:00 AM
Mon, Jul 6
73 °FClear.2 mph59%30.05 "Hg47 mi
1:00 AM71 °FClear.1 mph61%30.06 "Hg47 mi
12:00 AM75 °FClear.2 mph54%30.06 "Hg47 mi
11:00 PM
Sun, Jul 5
78 °FClear.2 mph48%30.05 "Hg47 mi
10:00 PM79 °FClear.2 mph47%30.06 "Hg47 mi
9:00 PM81 °FClear.2 mph43%30.05 "Hg47 mi
8:00 PM85 °FSunny.2 mph40%30.05 "Hg47 mi
7:00 PM87 °FSunny.2 mph34%30.05 "Hg47 mi
6:00 PM88 °FPassing clouds.3 mph32%30.04 "Hg47 mi
5:00 PM88 °FPassing clouds.5 mph33%30.05 "Hg47 mi
4:00 PM88 °FPassing clouds.5 mph32%30.06 "Hg47 mi
3:00 PM87 °FScattered clouds.3 mph32%30.08 "Hg47 mi
2:00 PM87 °FPartly sunny.2 mph34%30.09 "Hg47 mi
1:00 PM86 °FPassing clouds.3 mph35%30.10 "Hg47 mi
12:00 PM85 °FPassing clouds.2 mph33%30.11 "Hg47 mi
11:00 AM84 °FPassing clouds.2 mph39%30.11 "Hg47 mi
10:00 AM81 °FPassing clouds.3 mph53%30.12 "Hg47 mi
9:00 AM81 °FSunny.1 mph44%30.12 "Hg47 mi
8:00 AM77 °FSunny.1 mph51%30.12 "Hg47 mi
7:00 AM71 °FSunny.No wind61%30.13 "Hg47 mi
6:00 AM67 °FSunny.1 mph61%30.13 "Hg47 mi
4:00 AM66 °FClear.1 mph64%30.14 "Hg47 mi
Weather by CustomWeather, © 2015

See weather overviewHow to use our weather pages